STARLINK-34661

Last updated on Tue Aug 26 2025 00:02:05 GMT+0000 (Coordinated Universal Time)

1 64927U 25157Z 25237.58336806 -.01849540 00000+0 -48144-1 0 9990 2 64927 53.1588 187.2803 0001170 122.9716 28.6947 15.41608499 5778

Satellite not in orbit

STARLINK-34661